Spokane Fairchild, WA
on Friday, December 28, 2012

Friday
Previous Day Next Day
Daily Summary
 ActualAverage (KGEG)Record (KGEG)
Temperature
Mean Temperature °F 27°F  
Max Temperature 30°F 32°F 51°F (1897)
Min Temperature 22°F 22°F -15°F (1968)
Degree Days
Heating Degree Days 39 38  
Month to date heating degree days 1053  
Since 1 July heating degree days 2720  
Cooling Degree Days 0 0  
Month to date cooling degree days 0  
Year to date cooling degree days 450  
Moisture
Dew Point 26°F   
Average Humidity 100    
Maximum Humidity 100    
Minimum Humidity 100    
Precipitation
Precipitation 0.00 in 0.07 in 0.54 in (1945)
Month to date precipitation 2.11  
Year to date precipitation 16.37  
Snow
Snow 0.00 in 0.60 in 7.60 in (1992)
Month to date snowfall 13.1  
Since 1 July snowfall 20.6  
Snow Depth 7.00 in   
Wind
Wind Speed 4 mph   
Max Wind Speed 8 mph   
Max Gust Speed mph   
Visibility 7 miles   
Events Rain , Snow   

Key: T is trace of precipitation, MM is missing value
Source: NWS Daily Summary
Time(PST)TemperatureDew PointHumidity Pressure Visibility Wind DirectionWind SpeedGust SpeedPrecipitationEvents Conditions
12:00 AM 26.6°F 26.6°F 100% 30.09 in 2.0 miles WSW 4.6 mph - N/A Rain Light Freezing Rain
12:05 AM 26.6°F 26.6°F 100% 30.09 in 1.8 miles West 4.6 mph - N/A Rain Light Freezing Rain
12:10 AM 26.6°F 26.6°F 100% 30.09 in 1.5 miles West 3.5 mph - N/A Rain Light Freezing Rain
12:15 AM 26.6°F 26.6°F 100% 30.09 in 1.2 miles WSW 3.5 mph - N/A Rain Light Freezing Rain
12:20 AM 26.6°F 26.6°F 100% 30.10 in 1.2 miles West 4.6 mph - N/A Rain Light Freezing Rain
12:25 AM 26.6°F 26.6°F 100% 30.10 in 1.2 miles WSW 4.6 mph - N/A Rain Light Freezing Rain
12:30 AM 26.6°F 26.6°F 100% 30.10 in 1.0 miles WSW 4.6 mph - N/A Rain Light Freezing Rain
12:40 AM 26.6°F 26.6°F 100% 30.10 in 1.2 miles WSW 4.6 mph - N/A Rain Light Freezing Rain
12:43 AM 26.6°F 26.6°F 100% 30.10 in 1.2 miles WSW 8.1 mph - N/A   Overcast
12:48 AM 26.6°F 26.6°F 100% 30.11 in 2.0 miles WSW 6.9 mph - N/A   Overcast
12:53 AM 26.6°F 26.6°F 100% 30.11 in 4.0 miles West 6.9 mph - N/A   Overcast
12:58 AM 27.0°F 27.0°F 100% 30.20 in 4.0 miles West 8.1 mph - 0.00 in   Overcast
1:03 AM 26.6°F 26.6°F 100% 30.11 in 6.0 miles WSW 8.1 mph - N/A   Overcast
1:18 AM 26.6°F 26.6°F 100% 30.11 in 9.0 miles West 6.9 mph - N/A   Overcast
1:33 AM 26.6°F 26.6°F 100% 30.11 in 10.0 miles West 5.8 mph - N/A   Overcast
1:58 AM 26.8°F 26.8°F 100% 30.21 in 10.0 miles WNW 3.5 mph - N/A   Overcast
2:01 AM 26.6°F 26.6°F 100% 30.11 in 10.0 miles WNW 3.5 mph - N/A   Overcast
2:06 AM 26.6°F 26.6°F 100% 30.11 in 10.0 miles WNW 3.5 mph - N/A   Overcast
2:10 AM 26.6°F 26.6°F 100% 30.11 in 10.0 miles WNW 2.3 mph - N/A   Overcast
2:15 AM 26.6°F 26.6°F 100% 30.11 in 10.0 miles WNW 2.3 mph - N/A   Overcast
2:20 AM 26.6°F 26.6°F 100% 30.11 in 10.0 miles WNW 2.3 mph - N/A   Overcast
2:35 AM 26.6°F 26.6°F 100% 30.11 in 10.0 miles West 1.2 mph - N/A Snow Light Snow
2:41 AM 26.6°F 26.6°F 100% 30.11 in 10.0 miles West 2.3 mph - N/A   Overcast
2:43 AM 26.6°F 26.6°F 100% 30.11 in 10.0 miles West 2.3 mph - N/A Snow Light Snow
2:58 AM 26.8°F 26.8°F 100% 30.20 in 10.0 miles WNW 2.3 mph - 0.00 in Snow Light Snow
3:02 AM 26.6°F 26.6°F 100% 30.12 in 10.0 miles West 2.3 mph - N/A   Overcast
3:58 AM 26.8°F 26.8°F 100% 30.21 in 10.0 miles Calm Calm - 0.00 in   Overcast
4:03 AM 26.6°F 26.6°F 100% 30.11 in 10.0 miles South 1.2 mph - N/A   Overcast
4:04 AM 26.6°F 26.6°F 100% 30.11 in 10.0 miles SSE 1.2 mph - N/A   Overcast
4:13 AM 26.6°F 26.6°F 100% 30.11 in 10.0 miles Calm Calm - N/A   Overcast
4:23 AM 26.6°F 26.6°F 100% 30.12 in 10.0 miles Calm Calm - N/A   Overcast
4:58 AM 26.8°F 26.8°F 100% 30.21 in 10.0 miles ENE 1.2 mph - 0.00 in   Overcast
4:59 AM 26.6°F 26.6°F 100% 30.11 in 10.0 miles ENE 2.3 mph - N/A   Overcast
5:04 AM 26.6°F 26.6°F 100% 30.11 in 10.0 miles East 2.3 mph - N/A   Overcast
5:12 AM 26.6°F 26.6°F 100% 30.11 in 10.0 miles ENE 2.3 mph - N/A   Overcast
5:21 AM 26.6°F 26.6°F 100% 30.11 in 10.0 miles East 2.3 mph - N/A   Overcast
5:30 AM 26.6°F 26.6°F 100% 30.11 in 10.0 miles ESE 2.3 mph - N/A   Overcast
5:35 AM 26.6°F 26.6°F 100% 30.12 in 10.0 miles East 1.2 mph - N/A   Overcast
5:58 AM 26.8°F 26.8°F 100% 30.22 in 10.0 miles Calm Calm - 0.00 in   Overcast
6:04 AM 26.6°F 26.6°F 100% 30.12 in 10.0 miles Calm Calm - N/A   Overcast
6:09 AM 26.6°F 26.6°F 100% 30.12 in 10.0 miles Calm Calm - N/A   Overcast
6:13 AM 26.6°F 26.6°F 100% 30.12 in 9.0 miles Calm Calm - N/A   Overcast
6:50 AM 26.6°F 26.6°F 100% 30.12 in 7.0 miles Calm Calm - N/A   Overcast
6:58 AM 26.8°F 26.8°F 100% 30.22 in 8.0 miles ESE 2.3 mph - 0.00 in   Overcast
7:18 AM 26.6°F 26.6°F 100% 30.12 in 5.0 miles SSE 3.5 mph - N/A   Overcast
7:27 AM 26.6°F 26.6°F 100% 30.12 in 4.0 miles SSE 3.5 mph - N/A   Overcast
7:37 AM 26.6°F 26.6°F 100% 30.13 in 7.0 miles SSE 2.3 mph - N/A   Overcast
7:47 AM 26.6°F 26.6°F 100% 30.13 in 8.0 miles ESE 1.2 mph - N/A   Overcast
7:52 AM 26.6°F 26.6°F 100% 30.13 in 9.0 miles South 2.3 mph - N/A   Overcast
7:58 AM 26.6°F 26.6°F 100% 30.22 in 9.0 miles South 2.3 mph - 0.00 in   Overcast
8:20 AM 26.6°F 26.6°F 100% 30.14 in 10.0 miles SSE 3.5 mph - N/A   Overcast
8:37 AM 26.6°F 26.6°F 100% 30.14 in 10.0 miles SE 3.5 mph - N/A   Overcast
8:47 AM 26.6°F 26.6°F 100% 30.14 in 10.0 miles SSE 3.5 mph - N/A   Overcast
8:58 AM 26.4°F 26.4°F 100% 30.24 in 10.0 miles South 2.3 mph - 0.00 in   Overcast
9:08 AM 26.6°F 26.6°F 100% 30.15 in 10.0 miles SSE 3.5 mph - N/A   Overcast
9:09 AM 26.6°F 26.6°F 100% 30.15 in 10.0 miles SSE 2.3 mph - N/A   Overcast
9:14 AM 26.6°F 26.6°F 100% 30.15 in 9.0 miles SE 4.6 mph - N/A   Overcast
9:24 AM 26.6°F 26.6°F 100% 30.15 in 10.0 miles South 3.5 mph - N/A   Overcast
9:29 AM 26.6°F 26.6°F 100% 30.15 in 8.0 miles South 4.6 mph - N/A   Overcast
9:31 AM 26.6°F 26.6°F 100% 30.15 in 6.0 miles South 4.6 mph - N/A   Overcast
9:42 AM 26.6°F 26.6°F 100% 30.15 in 7.0 miles SSE 3.5 mph - N/A   Overcast
9:52 AM 26.6°F 26.6°F 100% 30.15 in 5.0 miles SSE 2.3 mph - N/A   Overcast
9:58 AM 27.0°F 27.0°F 100% 30.25 in 5.0 miles SSE 1.2 mph - N/A   Overcast
10:06 AM 26.6°F 26.6°F 100% 30.15 in 2.5 miles SSE 3.5 mph - N/A   Overcast
10:15 AM 26.6°F 26.6°F 100% 30.15 in 3.0 miles SE 2.3 mph - N/A   Overcast
10:42 AM 28.4°F 28.4°F 100% 30.15 in 9.0 miles SSE 4.6 mph - N/A   Overcast
10:52 AM 28.4°F 28.4°F 100% 30.15 in 10.0 miles South 5.8 mph - N/A   Overcast
10:53 AM 28.4°F 28.4°F 100% 30.15 in 10.0 miles South 5.8 mph - N/A   Overcast
10:58 AM 27.7°F 27.7°F 100% 30.24 in 10.0 miles South 5.8 mph - 0.00 in   Overcast
11:08 AM 28.4°F 28.4°F 100% 30.14 in 10.0 miles South 4.6 mph - N/A   Overcast
11:39 AM 28.4°F 28.4°F 100% 30.14 in 10.0 miles SSE 2.3 mph - N/A   Overcast
11:48 AM 28.4°F 28.4°F 100% 30.14 in 10.0 miles South 3.5 mph - N/A   Overcast
11:58 AM 28.4°F 28.4°F 100% 30.23 in 10.0 miles South 2.3 mph - 0.00 in   Overcast
12:13 PM 28.4°F 28.4°F 100% 30.14 in 10.0 miles SSW 2.3 mph - N/A   Overcast
12:48 PM 28.4°F 28.4°F 100% 30.14 in 10.0 miles SE 2.3 mph - N/A   Overcast
12:58 PM 29.3°F 29.3°F 100% 30.23 in 10.0 miles SE 1.2 mph - 0.00 in   Overcast
1:06 PM 28.4°F 28.4°F 100% 30.14 in 10.0 miles SSE 2.3 mph - N/A   Overcast
1:11 PM 28.4°F 28.4°F 100% 30.14 in 10.0 miles SSE 2.3 mph - N/A   Overcast
1:31 PM 28.4°F 28.4°F 100% 30.14 in 10.0 miles Calm Calm - N/A   Overcast
1:41 PM 28.4°F 28.4°F 100% 30.14 in 10.0 miles East 3.5 mph - N/A   Overcast
1:58 PM 29.1°F 29.1°F 100% 30.23 in 10.0 miles ENE 2.3 mph - 0.00 in   Overcast
2:03 PM 28.4°F 28.4°F 100% 30.14 in 10.0 miles East 2.3 mph - N/A   Overcast
2:23 PM 28.4°F 28.4°F 100% 30.14 in 10.0 miles ENE 5.8 mph - N/A   Overcast
2:33 PM 28.4°F 28.4°F 100% 30.14 in 10.0 miles NNE 4.6 mph - N/A   Overcast
2:43 PM 28.4°F 28.4°F 100% 30.14 in 10.0 miles North 4.6 mph - N/A   Overcast
2:48 PM 30.2°F 30.2°F 100% 30.14 in 10.0 miles NNE 6.9 mph - N/A   Overcast
2:58 PM 29.5°F 29.5°F 100% 30.23 in 10.0 miles NNE 8.1 mph - 0.00 in   Overcast
3:03 PM 30.2°F 30.2°F 100% 30.14 in 10.0 miles NE 5.8 mph - N/A   Overcast
3:08 PM 30.2°F 30.2°F 100% 30.14 in 10.0 miles North 3.5 mph - N/A   Overcast
3:48 PM 28.4°F 28.4°F 100% 30.14 in 10.0 miles NNE 5.8 mph - N/A   Overcast
3:58 PM 28.9°F 28.9°F 100% 30.23 in 10.0 miles NNE 4.6 mph - N/A   Overcast
4:58 PM 25.7°F 25.7°F 100% 30.24 in 10.0 miles North 4.6 mph - N/A   Overcast
5:18 PM 24.8°F 24.8°F 100% 30.14 in 10.0 miles North 5.8 mph - N/A   Mostly Cloudy
5:58 PM 25.0°F 25.0°F 100% 30.24 in 10.0 miles North 5.8 mph - N/A   Overcast
6:18 PM 24.8°F 24.8°F 100% 30.14 in 10.0 miles Variable 5.8 mph - N/A   Overcast
6:58 PM 25.7°F 25.7°F 100% 30.25 in 10.0 miles North 5.8 mph - N/A   Overcast
7:13 PM 24.8°F 24.8°F 100% 30.15 in 10.0 miles NNW 4.6 mph - N/A   Overcast
7:58 PM 24.8°F 24.8°F 100% 30.25 in 10.0 miles ENE 3.5 mph - N/A   Overcast
8:04 PM 23.0°F 23.0°F 100% 30.15 in 3.0 miles NE 3.5 mph - N/A   Overcast
8:09 PM 23.0°F 23.0°F 100% 30.15 in 1.5 miles NE 3.5 mph - N/A   Overcast
8:13 PM 23.0°F 23.0°F 100% 30.15 in 1.5 miles NE 4.6 mph - N/A   Mostly Cloudy
8:28 PM 23.0°F 23.0°F 100% 30.15 in 1.2 miles NE 2.3 mph - N/A   Mostly Cloudy
8:33 PM 23.0°F 23.0°F 100% 30.15 in 1.0 miles NE 2.3 mph - N/A   Mostly Cloudy
8:58 PM 22.5°F 22.5°F 100% 30.25 in 1.0 miles ENE 1.2 mph - 0.00 in   Scattered Clouds
9:03 PM 23.0°F 23.0°F 100% 30.15 in 1.0 miles Calm Calm - N/A   Partly Cloudy
9:23 PM 23.0°F 23.0°F 100% 30.15 in 0.8 miles East 1.2 mph - N/A   Partly Cloudy
9:28 PM 23.0°F 23.0°F 100% 30.15 in 1.0 miles ENE 1.2 mph - N/A   Partly Cloudy
9:38 PM 23.0°F 23.0°F 100% 30.15 in 0.8 miles NE 2.3 mph - N/A   Partly Cloudy
9:43 PM 23.0°F 23.0°F 100% 30.15 in 1.0 miles NE 2.3 mph - N/A   Partly Cloudy
9:48 PM 23.0°F 23.0°F 100% 30.15 in 1.2 miles NNE 2.3 mph - N/A   Partly Cloudy
9:58 PM 23.0°F 23.0°F 100% 30.25 in 1.5 miles North 1.2 mph - N/A   Clear
10:08 PM 23.0°F 23.0°F 100% 30.15 in 1.8 miles Calm Calm - N/A   Partly Cloudy
10:23 PM 23.0°F 23.0°F 100% 30.15 in 1.8 miles North 1.2 mph - N/A   Partly Cloudy
10:33 PM 23.0°F 23.0°F 100% 30.15 in 1.5 miles NNE 2.3 mph - N/A   Partly Cloudy
10:53 PM 23.0°F 23.0°F 100% 30.15 in 1.8 miles NNE 1.2 mph - N/A   Scattered Clouds
10:58 PM 23.9°F 23.9°F 100% 30.25 in 1.8 miles NNE 1.2 mph - N/A   Mostly Cloudy
11:13 PM 23.0°F 23.0°F 100% 30.15 in 1.5 miles Calm Calm - N/A   Scattered Clouds
11:18 PM 23.0°F 23.0°F 100% 30.14 in 2.5 miles NNE 2.3 mph - N/A   Scattered Clouds
11:23 PM 24.8°F 24.8°F 100% 30.14 in 3.0 miles NNE 2.3 mph - N/A   Partly Cloudy
11:28 PM 23.0°F 23.0°F 100% 30.14 in 2.5 miles NNE 1.2 mph - N/A   Partly Cloudy
11:33 PM 23.0°F 23.0°F 100% 30.14 in 1.8 miles North 2.3 mph - N/A   Clear
11:48 PM 23.0°F 23.0°F 100% 30.14 in 2.0 miles NNE 3.5 mph - N/A   Mostly Cloudy
11:58 PM 22.8°F 22.8°F 100% 30.24 in 2.5 miles NNE 2.3 mph - N/A   Mostly Cloudy
Moon Phase
Dec. 28 Jan. 04 Jan. 11 Jan. 18 Jan. 26
Sunrise:07:38 AM (PST) Moon Rise:04:52 PM (PST)12/28
Sunset:04:06 PM (PST) Moon Set:07:32 AM (PST)12/28

Copyright © 2014 The Weather Underground, Inc.